Location: Koussan�
(15.2012°N, 12.5548°W)
Time: 02:01:48
(UTC+00:00)

IRS-1C Rocket - Pass Details

Date: 20 October 2020
Orbit: 801 x 805 km, 99.0° (Epoch: 25 November)

Event Time Altitude Azimuth Distance (km) Brightness Sun altitude
Rises 18:53:14 0° 151° (SSE) 3,298 7.1 -7.2°
Reaches altitude 10° 18:55:40 10° 144° (SE) 2,370 6.3 -7.7°
Maximum altitude 19:00:34 41° 75° (ENE) 1,140 4.5 -8.9°
Drops below altitude 10° 19:05:28 10° 6° (N) 2,375 6.4 -10.1°
Sets 19:07:54 0° 359° (N) 3,306 7.2 -10.7°
